TPC178 KDCA-KOWB

Flight info

Callsign TPC178
Flight time 1h 37m
Altitude 40000
Route REBLL5 OTTTO Q68 HVQ J78 IIU MYS ZUTJO
Aircraft C700/M-SBDGHM1RWXY/LB2

Departure

Time 2026-05-06 23:08
Airport Ronald Reagan Washington National Airport (KDCA)

Arrival

Time 2026-05-07 00:46
Airport Owensboro Daviess County Airport (KOWB)
Time Latitude Longitude Altitude Speed Heading
2026-05-06 22:46 38.84552 -77.04523 18 ft 0 kts 142°
2026-05-06 23:00 38.84550 -77.04522 18 ft 0 kts 142°
2026-05-06 23:01 38.84537 -77.04465 18 ft 11 kts 68°
2026-05-06 23:01 38.84571 -77.04373 19 ft 12 kts 81°
2026-05-06 23:01 38.84569 -77.04268 20 ft 12 kts 86°
2026-05-06 23:01 38.84584 -77.04169 22 ft 11 kts 67°
2026-05-06 23:02 38.84615 -77.04069 21 ft 15 kts 54°
2026-05-06 23:02 38.84716 -77.03990 19 ft 19 kts 24°
2026-05-06 23:02 38.84854 -77.03948 16 ft 22 kts 357°
2026-05-06 23:02 38.84999 -77.03965 15 ft 21 kts 355°
2026-05-06 23:03 38.85121 -77.03978 15 ft 16 kts 354°
2026-05-06 23:03 38.85245 -77.03989 17 ft 19 kts 355°
2026-05-06 23:03 38.85381 -77.03999 18 ft 20 kts 356°
2026-05-06 23:03 38.85523 -77.04020 20 ft 21 kts 349°
2026-05-06 23:04 38.85661 -77.04049 23 ft 20 kts 342°
2026-05-06 23:04 38.85772 -77.04150 23 ft 21 kts 322°
2026-05-06 23:04 38.85886 -77.04263 23 ft 20 kts 323°
2026-05-06 23:04 38.85978 -77.04351 21 ft 13 kts 324°
2026-05-06 23:05 38.86044 -77.04399 19 ft 7 kts
2026-05-06 23:05 38.86050 -77.04398 18 ft 0 kts 15°
2026-05-06 23:06 38.86054 -77.04396 18 ft 5 kts 20°
2026-05-06 23:06 38.86092 -77.04337 19 ft 6 kts 75°
2026-05-06 23:06 38.86090 -77.04308 17 ft 5 kts 113°
2026-05-06 23:06 38.86085 -77.04299 17 ft 0 kts 135°
2026-05-06 23:07 38.86085 -77.04298 17 ft 1 kts 135°
2026-05-06 23:08 38.85802 -77.04022 22 ft 103 kts 143°
2026-05-06 23:08 38.85037 -77.03257 309 ft 171 kts 142°
2026-05-06 23:08 38.84030 -77.02341 1406 ft 186 kts 167°
2026-05-06 23:08 38.82785 -77.02427 2891 ft 181 kts 196°
2026-05-06 23:09 38.81439 -77.02708 4102 ft 210 kts 192°
2026-05-06 23:09 38.79871 -77.02911 4975 ft 254 kts 192°
2026-05-06 23:09 38.78120 -77.03646 5002 ft 267 kts 211°
2026-05-06 23:09 38.76624 -77.04977 5001 ft 257 kts 226°
2026-05-06 23:10 38.75514 -77.06715 4962 ft 250 kts 241°
2026-05-06 23:10 38.74811 -77.08739 4958 ft 247 kts 255°
2026-05-06 23:10 38.74543 -77.10874 4964 ft 246 kts 266°
2026-05-06 23:10 38.74436 -77.13077 4967 ft 245 kts 266°
2026-05-06 23:11 38.74305 -77.15259 4966 ft 245 kts 265°
2026-05-06 23:11 38.74165 -77.17429 5118 ft 252 kts 265°
2026-05-06 23:11 38.74029 -77.19584 7067 ft 233 kts 265°
2026-05-06 23:11 38.73898 -77.21692 8701 ft 243 kts 264°
2026-05-06 23:12 38.73788 -77.23889 10228 ft 250 kts 268°
2026-05-06 23:12 38.73962 -77.26198 11299 ft 278 kts 278°
2026-05-06 23:12 38.74490 -77.28610 12878 ft 281 kts 283°
2026-05-06 23:12 38.75038 -77.31049 14417 ft 286 kts 282°
2026-05-06 23:13 38.75573 -77.33514 15928 ft 286 kts 283°
2026-05-06 23:13 38.76119 -77.35999 16956 ft 307 kts 283°
2026-05-06 23:13 38.76735 -77.38794 17009 ft 336 kts 283°
2026-05-06 23:13 38.77383 -77.41677 17007 ft 334 kts 283°
2026-05-06 23:14 38.78019 -77.44525 17010 ft 330 kts 283°
2026-05-06 23:14 38.78641 -77.47360 17141 ft 327 kts 283°
2026-05-06 23:14 38.79238 -77.50059 19001 ft 299 kts 283°
2026-05-06 23:14 38.79784 -77.52531 20784 ft 290 kts 282°
2026-05-06 23:15 38.80332 -77.55056 21833 ft 296 kts 282°
2026-05-06 23:15 38.80894 -77.57614 22992 ft 298 kts 282°
2026-05-06 23:15 38.81462 -77.60191 24004 ft 301 kts 281°
2026-05-06 23:15 38.82005 -77.62811 24974 ft 303 kts 278°
2026-05-06 23:16 38.82350 -77.65474 25938 ft 304 kts 274°
2026-05-06 23:16 38.82591 -77.68152 26822 ft 307 kts 274°
2026-05-06 23:16 38.82855 -77.70893 27707 ft 311 kts 274°
2026-05-06 23:16 38.83121 -77.73651 28601 ft 314 kts 274°
2026-05-06 23:17 38.83384 -77.76457 29450 ft 317 kts 274°
2026-05-06 23:17 38.83647 -77.79286 30270 ft 321 kts 274°
2026-05-06 23:17 38.83912 -77.82114 30994 ft 324 kts 274°
2026-05-06 23:17 38.84183 -77.85006 31692 ft 327 kts 274°
2026-05-06 23:18 38.84451 -77.87919 32369 ft 329 kts 273°
2026-05-06 23:18 38.84582 -77.90839 33034 ft 331 kts 270°
2026-05-06 23:18 38.84661 -77.93811 33694 ft 334 kts 270°
2026-05-06 23:18 38.84759 -77.96799 34330 ft 336 kts 270°
2026-05-06 23:19 38.84852 -77.99800 34912 ft 337 kts 271°
2026-05-06 23:19 38.84936 -78.02827 35419 ft 340 kts 271°
2026-05-06 23:19 38.85021 -78.05853 36098 ft 337 kts 271°
2026-05-06 23:19 38.85106 -78.08811 36811 ft 333 kts 271°
2026-05-06 23:20 38.85191 -78.11774 37461 ft 330 kts 272°
2026-05-06 23:20 38.85273 -78.14723 37906 ft 330 kts 272°
2026-05-06 23:20 38.85351 -78.17609 38562 ft 325 kts 272°
2026-05-06 23:20 38.85428 -78.20515 38814 ft 327 kts 272°
2026-05-06 23:21 38.85412 -78.23449 39142 ft 327 kts 270°
2026-05-06 23:21 38.85401 -78.26367 39434 ft 327 kts 271°
2026-05-06 23:21 38.85400 -78.29268 39648 ft 329 kts 270°
2026-05-06 23:21 38.85389 -78.32217 39866 ft 331 kts 270°
2026-05-06 23:22 38.85347 -78.35203 39864 ft 337 kts 268°
2026-05-06 23:22 38.84733 -78.41285 39879 ft 350 kts 262°
2026-05-06 23:23 38.83728 -78.47368 39873 ft 346 kts 262°
2026-05-06 23:23 38.82747 -78.53380 39866 ft 342 kts 262°
2026-05-06 23:24 38.81766 -78.59311 39862 ft 343 kts 262°
2026-05-06 23:24 38.80772 -78.65337 39863 ft 346 kts 262°
2026-05-06 23:25 38.79765 -78.71394 39864 ft 347 kts 262°
2026-05-06 23:25 38.78758 -78.77449 39864 ft 349 kts 262°
2026-05-06 23:26 38.77744 -78.83512 39858 ft 346 kts 262°
2026-05-06 23:26 38.76736 -78.89521 39876 ft 345 kts 262°
2026-05-06 23:27 38.75725 -78.95551 39876 ft 347 kts 262°
2026-05-06 23:27 38.74704 -79.01576 39881 ft 349 kts 262°
2026-05-06 23:28 38.73677 -79.07654 39883 ft 346 kts 261°
2026-05-06 23:28 38.72663 -79.13615 39885 ft 340 kts 261°
2026-05-06 23:29 38.71654 -79.19528 39883 ft 338 kts 261°
2026-05-06 23:29 38.70650 -79.25410 39883 ft 343 kts 261°
2026-05-06 23:30 38.69672 -79.31414 39890 ft 346 kts 262°
2026-05-06 23:30 38.68683 -79.37411 39889 ft 343 kts 262°
2026-05-06 23:31 38.67701 -79.43352 39903 ft 340 kts 261°
2026-05-06 23:31 38.66710 -79.49340 39914 ft 346 kts 261°
2026-05-06 23:32 38.65708 -79.55346 39910 ft 344 kts 261°
2026-05-06 23:32 38.64710 -79.61339 39915 ft 344 kts 261°
2026-05-06 23:33 38.63702 -79.67329 39915 ft 345 kts 261°
2026-05-06 23:33 38.62672 -79.73294 39927 ft 345 kts 261°
2026-05-06 23:34 38.61583 -79.79279 39927 ft 345 kts 261°
2026-05-06 23:34 38.60516 -79.85243 39936 ft 340 kts 260°
2026-05-06 23:35 38.59459 -79.91097 39931 ft 336 kts 260°
2026-05-06 23:35 38.58406 -79.96936 39929 ft 339 kts 260°
2026-05-06 23:36 38.57334 -80.02835 39945 ft 341 kts 260°
2026-05-06 23:36 38.56284 -80.08719 39944 ft 342 kts 262°
2026-05-06 23:37 38.55725 -80.14732 39941 ft 340 kts 268°
2026-05-06 23:37 38.55832 -80.20757 39951 ft 339 kts 273°
2026-05-06 23:38 38.56137 -80.26717 39946 ft 334 kts 271°
2026-05-06 23:38 38.56434 -80.32620 39953 ft 332 kts 272°
2026-05-06 23:39 38.56735 -80.38535 39959 ft 335 kts 272°
2026-05-06 23:39 38.56998 -80.43917 39945 ft 337 kts 272°
2026-05-06 23:40 38.57280 -80.49559 39970 ft 338 kts 272°
2026-05-06 23:40 38.57567 -80.55579 39963 ft 338 kts 271°
2026-05-06 23:41 38.57424 -80.61543 39964 ft 333 kts 265°
2026-05-06 23:41 38.56644 -80.67359 39964 ft 332 kts 259°
2026-05-06 23:42 38.55541 -80.73073 39964 ft 335 kts 259°
2026-05-06 23:42 38.54419 -80.78898 39972 ft 340 kts 259°
2026-05-06 23:43 38.53277 -80.84762 39932 ft 338 kts 259°
2026-05-06 23:43 38.52341 -80.89596 39963 ft 336 kts 259°
2026-05-06 23:44 38.51209 -80.95384 39973 ft 335 kts 259°
2026-05-06 23:44 38.50085 -81.01146 39970 ft 334 kts 259°
2026-05-06 23:45 38.48956 -81.06900 39975 ft 334 kts 259°
2026-05-06 23:45 38.47836 -81.12609 39970 ft 333 kts 259°
2026-05-06 23:46 38.46700 -81.18357 39961 ft 335 kts 259°
2026-05-06 23:46 38.45559 -81.24137 39970 ft 337 kts 259°
2026-05-06 23:47 38.44407 -81.29948 39983 ft 338 kts 259°
2026-05-06 23:47 38.43254 -81.35743 39974 ft 335 kts 259°
2026-05-06 23:48 38.42111 -81.41478 39963 ft 332 kts 259°
2026-05-06 23:48 38.40971 -81.47181 39961 ft 332 kts 259°
2026-05-06 23:49 38.39826 -81.52891 39955 ft 332 kts 258°
2026-05-06 23:49 38.38677 -81.58606 39973 ft 333 kts 258°
2026-05-06 23:50 38.37533 -81.64282 39977 ft 333 kts 258°
2026-05-06 23:50 38.35799 -81.72856 39957 ft 332 kts 258°
2026-05-06 23:51 38.34929 -81.78647 39972 ft 333 kts 264°
2026-05-06 23:51 38.34602 -81.84564 39970 ft 336 kts 266°
2026-05-06 23:52 38.34299 -81.90467 39967 ft 335 kts 266°
2026-05-06 23:52 38.34011 -81.96373 39961 ft 333 kts 266°
2026-05-06 23:53 38.33714 -82.02256 39959 ft 332 kts 266°
2026-05-06 23:53 38.33418 -82.08123 39956 ft 332 kts 266°
2026-05-06 23:54 38.33116 -82.13987 39953 ft 332 kts 266°
2026-05-06 23:54 38.32815 -82.19845 39955 ft 332 kts 266°
2026-05-06 23:55 38.32505 -82.25720 39952 ft 332 kts 266°
2026-05-06 23:55 38.32199 -82.31598 39949 ft 333 kts 266°
2026-05-06 23:56 38.31886 -82.37458 39952 ft 334 kts 266°
2026-05-06 23:56 38.31568 -82.43376 39968 ft 335 kts 265°
2026-05-06 23:57 38.31249 -82.49277 39965 ft 332 kts 265°
2026-05-06 23:57 38.30927 -82.55133 39961 ft 330 kts 265°
2026-05-06 23:58 38.30604 -82.60972 39958 ft 330 kts 265°
2026-05-06 23:58 38.30282 -82.66812 39961 ft 332 kts 265°
2026-05-06 23:59 38.29950 -82.72664 39962 ft 334 kts 265°
2026-05-06 23:59 38.29616 -82.78569 39998 ft 335 kts 265°
2026-05-07 00:00 38.29279 -82.84453 39964 ft 329 kts 265°
2026-05-07 00:00 38.28947 -82.90234 39959 ft 326 kts 265°
2026-05-07 00:01 38.28608 -82.96017 39963 ft 328 kts 265°
2026-05-07 00:01 38.28270 -83.01801 39970 ft 331 kts 265°
2026-05-07 00:02 38.27922 -83.07660 39970 ft 332 kts 265°
2026-05-07 00:02 38.27573 -83.13520 39971 ft 331 kts 265°
2026-05-07 00:03 38.27222 -83.19343 39975 ft 329 kts 265°
2026-05-07 00:03 38.26871 -83.25127 39973 ft 325 kts 265°
2026-05-07 00:04 38.26517 -83.30880 39657 ft 331 kts 265°
2026-05-07 00:04 38.26342 -83.33744 39073 ft 317 kts 265°
2026-05-07 00:04 38.26171 -83.36519 38480 ft 310 kts 266°
2026-05-07 00:05 38.26002 -83.39240 37795 ft 309 kts 265°
2026-05-07 00:05 38.25834 -83.41936 37105 ft 311 kts 265°
2026-05-07 00:05 38.25661 -83.44701 36334 ft 316 kts 264°
2026-05-07 00:05 38.25484 -83.47516 35600 ft 322 kts 264°
2026-05-07 00:06 38.25303 -83.50388 34889 ft 329 kts 263°
2026-05-07 00:06 38.25118 -83.53310 34194 ft 334 kts 263°
2026-05-07 00:06 38.24929 -83.56281 33445 ft 340 kts 262°
2026-05-07 00:06 38.24734 -83.59305 32671 ft 344 kts 262°
2026-05-07 00:07 38.24539 -83.62360 31926 ft 346 kts 262°
2026-05-07 00:07 38.24342 -83.65412 31185 ft 347 kts 263°
2026-05-07 00:07 38.24143 -83.68472 30474 ft 347 kts 263°
2026-05-07 00:07 38.23945 -83.71543 29726 ft 348 kts 263°
2026-05-07 00:08 38.23747 -83.74614 28920 ft 347 kts 263°
2026-05-07 00:08 38.23549 -83.77662 28132 ft 344 kts 263°
2026-05-07 00:08 38.23351 -83.80666 27362 ft 339 kts 263°
2026-05-07 00:08 38.23157 -83.83599 26623 ft 335 kts 263°
2026-05-07 00:09 38.22964 -83.86531 25918 ft 331 kts 262°
2026-05-07 00:09 38.22772 -83.89434 25207 ft 328 kts 262°
2026-05-07 00:09 38.22580 -83.92309 24528 ft 325 kts 262°
2026-05-07 00:09 38.22390 -83.95157 24019 ft 319 kts 262°
2026-05-07 00:10 38.22207 -83.97905 24011 ft 309 kts 262°
2026-05-07 00:10 38.22017 -84.00667 24013 ft 320 kts 262°
2026-05-07 00:10 38.21821 -84.03529 24005 ft 327 kts 262°
2026-05-07 00:10 38.21629 -84.06410 24006 ft 326 kts 262°
2026-05-07 00:11 38.21436 -84.09278 24003 ft 324 kts 262°
2026-05-07 00:11 38.21240 -84.12124 24000 ft 322 kts 262°
2026-05-07 00:11 38.21044 -84.14967 23998 ft 323 kts 262°
2026-05-07 00:11 38.20847 -84.17821 23997 ft 325 kts 262°
2026-05-07 00:12 38.20650 -84.20687 24003 ft 326 kts 262°
2026-05-07 00:12 38.20451 -84.23562 24001 ft 326 kts 262°
2026-05-07 00:12 38.20252 -84.26433 23999 ft 326 kts 262°
2026-05-07 00:12 38.20051 -84.29301 24021 ft 325 kts 262°
2026-05-07 00:13 38.19849 -84.32168 24002 ft 326 kts 262°
2026-05-07 00:13 38.19647 -84.35033 24001 ft 325 kts 262°
2026-05-07 00:13 38.19445 -84.37901 24008 ft 326 kts 262°
2026-05-07 00:13 38.19241 -84.40767 24009 ft 326 kts 262°
2026-05-07 00:14 38.19037 -84.43636 24011 ft 326 kts 262°
2026-05-07 00:14 38.18833 -84.46497 24011 ft 325 kts 262°
2026-05-07 00:14 38.18630 -84.49312 24011 ft 324 kts 262°
2026-05-07 00:14 38.18426 -84.52160 24011 ft 323 kts 262°
2026-05-07 00:15 38.18221 -84.55005 24011 ft 322 kts 262°
2026-05-07 00:15 38.18015 -84.57840 24009 ft 322 kts 262°
2026-05-07 00:15 38.17808 -84.60681 24009 ft 323 kts 262°
2026-05-07 00:15 38.17601 -84.63526 24011 ft 324 kts 262°
2026-05-07 00:16 38.17392 -84.66385 24011 ft 326 kts 262°
2026-05-07 00:16 38.17182 -84.69254 24014 ft 326 kts 262°
2026-05-07 00:16 38.16971 -84.72119 24013 ft 324 kts 262°
2026-05-07 00:16 38.16762 -84.74958 24011 ft 322 kts 262°
2026-05-07 00:17 38.16550 -84.77794 24010 ft 323 kts 262°
2026-05-07 00:17 38.16342 -84.80599 24011 ft 324 kts 262°
2026-05-07 00:17 38.16129 -84.83452 24011 ft 324 kts 262°
2026-05-07 00:17 38.15916 -84.86302 24008 ft 324 kts 261°
2026-05-07 00:18 38.15700 -84.89156 24015 ft 324 kts 261°
2026-05-07 00:18 38.15487 -84.92007 24012 ft 324 kts 261°
2026-05-07 00:18 38.15273 -84.94850 24012 ft 323 kts 261°
2026-05-07 00:18 38.15057 -84.97692 24009 ft 323 kts 261°
2026-05-07 00:19 38.14840 -85.00530 24007 ft 322 kts 261°
2026-05-07 00:19 38.14624 -85.03358 24008 ft 322 kts 261°
2026-05-07 00:19 38.14407 -85.06191 24016 ft 323 kts 261°
2026-05-07 00:19 38.14187 -85.09045 24020 ft 326 kts 261°
2026-05-07 00:20 38.13966 -85.11917 24017 ft 327 kts 261°
2026-05-07 00:20 38.13745 -85.14784 24019 ft 326 kts 261°
2026-05-07 00:20 38.13526 -85.17610 24017 ft 325 kts 261°
2026-05-07 00:20 38.13304 -85.20463 24017 ft 324 kts 261°
2026-05-07 00:21 38.13082 -85.23312 24014 ft 323 kts 261°
2026-05-07 00:21 38.12859 -85.26151 24015 ft 324 kts 261°
2026-05-07 00:21 38.12635 -85.29003 24016 ft 324 kts 261°
2026-05-07 00:21 38.12410 -85.31851 24018 ft 325 kts 261°
2026-05-07 00:22 38.12185 -85.34708 24020 ft 325 kts 261°
2026-05-07 00:22 38.11958 -85.37568 24021 ft 326 kts 261°
2026-05-07 00:22 38.11731 -85.40426 24022 ft 326 kts 261°
2026-05-07 00:22 38.11502 -85.43292 24022 ft 327 kts 260°
2026-05-07 00:23 38.11271 -85.46173 24025 ft 328 kts 260°
2026-05-07 00:23 38.11040 -85.49050 24025 ft 328 kts 260°
2026-05-07 00:23 38.10809 -85.51930 24025 ft 327 kts 260°
2026-05-07 00:23 38.10553 -85.54795 24000 ft 326 kts 259°
2026-05-07 00:24 38.10118 -85.57635 23742 ft 332 kts 255°
2026-05-07 00:24 38.09464 -85.60475 22983 ft 335 kts 251°
2026-05-07 00:24 38.08638 -85.63210 22204 ft 328 kts 249°
2026-05-07 00:24 38.07804 -85.65868 21433 ft 319 kts 249°
2026-05-07 00:25 38.07015 -85.68431 20694 ft 312 kts 249°
2026-05-07 00:25 38.06228 -85.70972 19963 ft 307 kts 249°
2026-05-07 00:25 38.05444 -85.73477 19253 ft 304 kts 249°
2026-05-07 00:25 38.04661 -85.75979 18560 ft 303 kts 249°
2026-05-07 00:26 38.03884 -85.78469 17811 ft 303 kts 250°
2026-05-07 00:26 38.03108 -85.80956 17030 ft 304 kts 250°
2026-05-07 00:26 38.02326 -85.83454 16262 ft 305 kts 250°
2026-05-07 00:26 38.01538 -85.85969 15525 ft 307 kts 250°
2026-05-07 00:27 38.00748 -85.88484 14802 ft 305 kts 251°
2026-05-07 00:27 37.99975 -85.90947 14088 ft 296 kts 251°
2026-05-07 00:27 37.99223 -85.93342 13331 ft 289 kts 251°
2026-05-07 00:27 37.98488 -85.95686 12554 ft 283 kts 251°
2026-05-07 00:28 37.97764 -85.97988 11798 ft 279 kts 251°
2026-05-07 00:28 37.97291 -85.99490 11308 ft 276 kts 250°
2026-05-07 00:28 37.96355 -86.02464 10341 ft 272 kts 250°
2026-05-07 00:28 37.95655 -86.04683 9600 ft 270 kts 250°
2026-05-07 00:29 37.94962 -86.06879 8918 ft 266 kts 250°
2026-05-07 00:29 37.94285 -86.09024 8411 ft 259 kts 250°
2026-05-07 00:30 37.92540 -86.14547 7075 ft 250 kts 250°
2026-05-07 00:30 37.91891 -86.16598 6591 ft 252 kts 249°
2026-05-07 00:30 37.91235 -86.18671 6087 ft 256 kts 249°
2026-05-07 00:30 37.90563 -86.20787 5571 ft 261 kts 249°
2026-05-07 00:31 37.89878 -86.22945 5069 ft 266 kts 249°
2026-05-07 00:31 37.89092 -86.25074 4567 ft 268 kts 239°
2026-05-07 00:31 37.88046 -86.27033 4057 ft 268 kts 237°
2026-05-07 00:31 37.87048 -86.28954 3982 ft 254 kts 238°
2026-05-07 00:32 37.86084 -86.30827 3979 ft 256 kts 238°
2026-05-07 00:32 37.85101 -86.32719 3983 ft 264 kts 237°
2026-05-07 00:32 37.84082 -86.34669 3994 ft 267 kts 238°
2026-05-07 00:32 37.83054 -86.36636 3992 ft 268 kts 238°
2026-05-07 00:33 37.82030 -86.38601 3993 ft 267 kts 238°
2026-05-07 00:33 37.81009 -86.40560 3991 ft 266 kts 238°
2026-05-07 00:33 37.79988 -86.42512 3991 ft 266 kts 238°
2026-05-07 00:33 37.78967 -86.44465 3993 ft 266 kts 238°
2026-05-07 00:34 37.77945 -86.46420 3988 ft 266 kts 238°
2026-05-07 00:34 37.76937 -86.48348 3988 ft 266 kts 238°
2026-05-07 00:34 37.75913 -86.50302 3989 ft 266 kts 238°
2026-05-07 00:34 37.74890 -86.52257 3993 ft 266 kts 238°
2026-05-07 00:35 37.73865 -86.54212 3992 ft 266 kts 237°
2026-05-07 00:35 37.72842 -86.56162 3991 ft 266 kts 238°
2026-05-07 00:35 37.71821 -86.58108 3986 ft 266 kts 238°
2026-05-07 00:35 37.70798 -86.60055 3986 ft 266 kts 238°
2026-05-07 00:36 37.69773 -86.62006 3988 ft 266 kts 238°
2026-05-07 00:36 37.68752 -86.63950 3988 ft 266 kts 238°
2026-05-07 00:36 37.67729 -86.65895 3994 ft 266 kts 238°
2026-05-07 00:36 37.66706 -86.67838 3993 ft 265 kts 237°
2026-05-07 00:37 37.65684 -86.69777 3995 ft 265 kts 238°
2026-05-07 00:37 37.64676 -86.71691 3989 ft 265 kts 238°
2026-05-07 00:37 37.63888 -86.73770 3980 ft 262 kts 258°
2026-05-07 00:37 37.63748 -86.76056 3992 ft 262 kts 272°
2026-05-07 00:38 37.63631 -86.78353 4000 ft 264 kts 263°
2026-05-07 00:38 37.63317 -86.80639 4010 ft 265 kts 261°
2026-05-07 00:38 37.62971 -86.82920 4008 ft 264 kts 260°
2026-05-07 00:38 37.62579 -86.85184 4005 ft 264 kts 256°
2026-05-07 00:39 37.62071 -86.87400 4006 ft 263 kts 255°
2026-05-07 00:39 37.61567 -86.89616 4005 ft 263 kts 255°
2026-05-07 00:39 37.61051 -86.91829 4005 ft 264 kts 253°
2026-05-07 00:39 37.60424 -86.94009 4007 ft 265 kts 251°
2026-05-07 00:40 37.59789 -86.96191 4003 ft 265 kts 251°
2026-05-07 00:40 37.59122 -86.98365 4003 ft 266 kts 250°
2026-05-07 00:40 37.58457 -87.00513 4000 ft 267 kts 250°
2026-05-07 00:40 37.57785 -87.02686 3995 ft 263 kts 250°
2026-05-07 00:41 37.57124 -87.04825 3447 ft 264 kts 250°
2026-05-07 00:41 37.56571 -87.07022 2995 ft 259 kts 266°
2026-05-07 00:41 37.56708 -87.09192 2994 ft 244 kts 283°
2026-05-07 00:41 37.57194 -87.11252 2993 ft 249 kts 297°
2026-05-07 00:42 37.58061 -87.13068 2989 ft 233 kts 307°
2026-05-07 00:42 37.59072 -87.14476 2985 ft 202 kts 320°
2026-05-07 00:42 37.60113 -87.15477 2884 ft 177 kts 327°
2026-05-07 00:42 37.61209 -87.15980 2656 ft 164 kts 354°
2026-05-07 00:43 37.62306 -87.16109 2504 ft 153 kts 355°
2026-05-07 00:43 37.63360 -87.16197 2289 ft 151 kts 356°
2026-05-07 00:43 37.64418 -87.16259 2088 ft 155 kts 358°
2026-05-07 00:43 37.65497 -87.16304 1874 ft 155 kts 357°
2026-05-07 00:44 37.66560 -87.16364 1656 ft 152 kts 357°
2026-05-07 00:44 37.67607 -87.16412 1449 ft 152 kts 357°
2026-05-07 00:44 37.68630 -87.16469 1337 ft 140 kts 356°
2026-05-07 00:44 37.69675 -87.16516 1054 ft 153 kts 355°
2026-05-07 00:45 37.70741 -87.16573 827 ft 154 kts 356°
2026-05-07 00:45 37.71804 -87.16623 625 ft 148 kts 357°
2026-05-07 00:45 37.72771 -87.16673 456 ft 132 kts 355°
2026-05-07 00:45 37.73598 -87.16717 403 ft 95 kts 358°
2026-05-07 00:46 37.74066 -87.16737 407 ft 32 kts 357°
2026-05-07 00:46 37.74188 -87.16662 408 ft 12 kts 54°
2026-05-07 00:46 37.74197 -87.16647 406 ft 0 kts 53°
2026-05-07 00:46 37.74209 -87.16628 404 ft 8 kts 52°
2026-05-07 00:47 37.74261 -87.16553 406 ft 12 kts 41°
2026-05-07 00:47 37.74333 -87.16514 406 ft 11 kts 27°
2026-05-07 00:47 37.74405 -87.16500 406 ft 10 kts
2026-05-07 00:47 37.74484 -87.16464 403 ft 14 kts 59°
2026-05-07 00:48 37.74548 -87.16392 404 ft 12 kts 29°
2026-05-07 00:48 37.74611 -87.16375 403 ft 3 kts 323°